Brocton, IL

7:30 PM CDT on August 25, 2016 (GMT -0500)
Edgar County

Weather History for KPRG - May, 2014

Change the Weather History Date:

Friday, May 2, 2014

  Actual Average (KHUF) Record (KHUF)
Temperature  
Mean Temperature 48 °F 58 °F  
Max Temperature 54 °F 69 °F 88 °F (2012)
Min Temperature 41 °F 47 °F 32 °F (1966)
Degree Days  
Heating Degree Days 18 7  
Month to date heating degree days 7  
Since 1 July heating degree days 5227  
Cooling Degree Days 0 1  
Month to date cooling degree days 1  
Year to date cooling degree days 16  
Moisture  
Dew Point 43 °F    
Average Humidity 81    
Maximum Humidity 95    
Minimum Humidity 61    
Precipitation  
Precipitation 0.00 in 0.21 in 2.06 in (1985)
Month to date precipitation 0.21  
Year to date precipitation 12.02  
Sea Level Pressure  
Sea Level Pressure 29.90 in    
Wind  
Wind Speed 9 mph (SW)    
Max Wind Speed 16 mph    
Max Gust Speed 21 mph    
Visibility 10 miles    
Events      
T = Trace of Precipitation, MM = Missing Value Source: NWS Daily Summary

Daily Weather History Graph

Daily Weather History Graph

Search for Another Location

Airport or City:

Trip Planner

Search our weather history database for the weather conditions in past years. The results will help you decide how hot, cold, wet, or windy it might be!

Date:

Astronomy

May. 02, 2014 Rise Set
Actual Time 5:50 AM CDT 7:45 PM CDT
Civil Twilight 5:20 AM CDT 8:15 PM CDT
Nautical Twilight 4:45 AM CDT 8:50 PM CDT
Astronomical Twilight 4:06 AM CDT 9:29 PM CDT
Moon 8:27 AM CDT (5/2) 11:07 PM CDT (5/2)
Length of Visible Light 14h 54m
Length of Day
13h 55m
Waxing Crescent, 12% of the Moon is Illuminated
May 2
Waxing Crescent
May 6
First Quarter
May 14
Full
May 21
Last Quarter
May 28
New

Hourly Weather History & Observations

Time (CDT) Temp. Windchill Dew Point Humidity Pressure Visibility Wind Dir Wind Speed Gust Speed Precip Events Conditions
12:15 AM 46.9 °F - 43.2 °F 87% 29.92 in 10.0 mi WSW 9.2 mph - N/A   Overcast
12:35 AM 47.1 °F - 43.2 °F 86% 29.92 in 10.0 mi WSW 11.5 mph - N/A   Overcast
12:55 AM 47.3 °F - 43.2 °F 86% 29.92 in 10.0 mi WSW 10.4 mph - N/A   Overcast
1:15 AM 47.3 °F - 43.3 °F 86% 29.91 in 10.0 mi WSW 8.1 mph - N/A   Overcast
1:35 AM 47.1 °F - 43.5 °F 87% 29.91 in 10.0 mi WSW 6.9 mph - N/A   Overcast
1:55 AM 47.3 °F - 43.7 °F 87% 29.90 in 10.0 mi WSW 10.4 mph - N/A   Overcast
2:15 AM 46.9 °F - 43.7 °F 88% 29.90 in 10.0 mi WSW 9.2 mph - N/A   Overcast
2:35 AM 46.6 °F - 43.5 °F 89% 29.90 in 10.0 mi WSW 8.1 mph - N/A   Overcast
2:55 AM 46.4 °F 42.4 °F 43.5 °F 90% 29.90 in 10.0 mi WSW 8.1 mph - N/A   Overcast
3:15 AM 46.4 °F 41.9 °F 43.3 °F 89% 29.90 in 10.0 mi WSW 9.2 mph - N/A   Overcast
3:35 AM 46.0 °F 41.9 °F 43.0 °F 89% 29.90 in 10.0 mi WSW 8.1 mph - N/A   Overcast
3:55 AM 45.3 °F 41.1 °F 42.4 °F 90% 29.90 in 10.0 mi WSW 8.1 mph - N/A   Overcast
4:15 AM 44.4 °F 40.5 °F 41.9 °F 91% 29.89 in 10.0 mi WSW 6.9 mph - N/A   Scattered Clouds
4:35 AM 43.7 °F 40.3 °F 41.5 °F 92% 29.89 in 10.0 mi WSW 5.8 mph - N/A   Clear
4:55 AM 43.0 °F 39.5 °F 41.0 °F 93% 29.89 in 10.0 mi WSW 5.8 mph - N/A   Clear
5:15 AM 42.8 °F 39.3 °F 41.0 °F 93% 29.89 in 10.0 mi WSW 5.8 mph - N/A   Clear
5:35 AM 41.9 °F 38.2 °F 40.5 °F 95% 29.89 in 10.0 mi WSW 5.8 mph - N/A   Scattered Clouds
5:55 AM 42.1 °F 38.4 °F 40.6 °F 95% 29.89 in 10.0 mi SW 5.8 mph - N/A   Mostly Cloudy
6:15 AM 43.3 °F 39.9 °F 41.9 °F 95% 29.89 in 10.0 mi WSW 5.8 mph - N/A   Overcast
6:35 AM 43.3 °F 39.9 °F 41.9 °F 95% 29.90 in 10.0 mi SW 5.8 mph - N/A   Overcast
6:55 AM 44.4 °F 40.0 °F 42.8 °F 94% 29.90 in 10.0 mi WSW 8.1 mph - N/A   Overcast
7:15 AM 44.8 °F 40.4 °F 42.8 °F 93% 29.91 in 10.0 mi SW 8.1 mph - N/A   Overcast
7:35 AM 45.5 °F 40.8 °F 43.2 °F 92% 29.91 in 10.0 mi WSW 9.2 mph - N/A   Overcast
7:55 AM 46.2 °F 42.2 °F 43.5 °F 90% 29.92 in 10.0 mi SW 8.1 mph - N/A   Overcast
8:15 AM 46.9 °F - 43.9 °F 89% 29.92 in 10.0 mi WSW 9.2 mph - N/A   Overcast
8:35 AM 47.5 °F - 43.9 °F 87% 29.92 in 10.0 mi WSW 8.1 mph - N/A   Overcast
8:55 AM 48.2 °F - 43.9 °F 85% 29.92 in 10.0 mi WSW 10.4 mph - N/A   Overcast
9:15 AM 48.4 °F - 43.7 °F 84% 29.92 in 10.0 mi WSW 9.2 mph - N/A   Overcast
9:35 AM 49.1 °F - 43.5 °F 81% 29.92 in 10.0 mi West 8.1 mph - N/A   Overcast
9:55 AM 48.9 °F - 43.2 °F 80% 29.93 in 10.0 mi West 8.1 mph - N/A   Overcast
10:15 AM 49.1 °F - 43.2 °F 80% 29.93 in 10.0 mi WSW 8.1 mph - N/A   Overcast
10:35 AM 49.3 °F - 43.0 °F 79% 29.93 in 10.0 mi WSW 10.4 mph - N/A   Overcast
10:55 AM 49.8 °F - 42.8 °F 77% 29.94 in 10.0 mi WSW 10.4 mph - N/A   Overcast
11:15 AM 48.4 °F - 42.6 °F 80% 29.94 in 7.0 mi WSW 9.2 mph - N/A   Overcast
11:35 AM 50.0 °F - 42.6 °F 76% 29.94 in 10.0 mi SW 11.5 mph 16.1 mph N/A   Overcast
11:55 AM 52.0 °F - 42.4 °F 70% 29.93 in 10.0 mi SW 12.7 mph 17.3 mph N/A   Overcast
12:15 PM 53.6 °F - 42.1 °F 65% 29.92 in 10.0 mi SW 9.2 mph - N/A   Overcast
12:35 PM 54.3 °F - 41.2 °F 61% 29.91 in 10.0 mi WSW 11.5 mph - N/A   Overcast
12:55 PM 53.8 °F - 41.4 °F 63% 29.91 in 10.0 mi West 11.5 mph - N/A   Overcast
1:15 PM 52.9 °F - 42.1 °F 67% 29.91 in 10.0 mi WSW 13.8 mph 18.4 mph N/A   Overcast
1:35 PM 53.6 °F - 42.6 °F 66% 29.91 in 10.0 mi SW 12.7 mph 18.4 mph N/A   Overcast
1:55 PM 53.6 °F - 43.5 °F 69% 29.90 in 10.0 mi SW 12.7 mph - N/A   Overcast
2:15 PM 54.3 °F - 43.0 °F 66% 29.90 in 10.0 mi WSW 11.5 mph - N/A   Overcast
2:35 PM 52.7 °F - 42.6 °F 69% 29.89 in 10.0 mi WSW 10.4 mph - N/A   Overcast
2:55 PM 53.2 °F - 43.0 °F 68% 29.89 in 10.0 mi SW 12.7 mph 19.6 mph N/A   Overcast
3:15 PM 52.0 °F - 43.3 °F 72% 29.89 in 10.0 mi SW 15.0 mph - N/A   Overcast
3:35 PM 53.4 °F - 43.3 °F 69% 29.89 in 10.0 mi SW 13.8 mph 20.7 mph N/A   Overcast
3:55 PM 52.7 °F - 42.8 °F 69% 29.89 in 10.0 mi SW 16.1 mph - N/A   Overcast
4:15 PM 52.7 °F - 43.0 °F 70% 29.89 in 10.0 mi SW 15.0 mph - N/A   Overcast
4:35 PM 52.2 °F - 42.8 °F 70% 29.90 in 10.0 mi WSW 10.4 mph - N/A   Overcast
4:55 PM 51.3 °F - 44.2 °F 77% 29.90 in 7.0 mi WSW 6.9 mph - N/A   Overcast
5:15 PM 52.2 °F - 43.3 °F 72% 29.90 in 10.0 mi WSW 13.8 mph 17.3 mph N/A   Overcast
5:35 PM 50.2 °F - 45.3 °F 83% 29.89 in 10.0 mi SSW 9.2 mph - N/A   Overcast
5:55 PM 51.3 °F - 45.7 °F 81% 29.87 in 10.0 mi South 10.4 mph - N/A   Overcast
6:15 PM 51.8 °F - 45.0 °F 77% 29.87 in 10.0 mi SSW 10.4 mph - N/A   Overcast
6:35 PM 51.8 °F - 44.2 °F 75% 29.87 in 10.0 mi SSW 10.4 mph - N/A   Overcast
6:55 PM 51.8 °F - 43.5 °F 73% 29.88 in 10.0 mi SW 9.2 mph - N/A   Overcast
7:15 PM 51.8 °F - 43.3 °F 73% 29.88 in 10.0 mi SW 9.2 mph - N/A   Overcast
7:35 PM 51.1 °F - 43.2 °F 74% 29.88 in 10.0 mi SW 8.1 mph - N/A   Overcast
7:55 PM 50.9 °F - 43.3 °F 75% 29.88 in 10.0 mi SSW 6.9 mph - N/A   Overcast
8:15 PM 50.0 °F - 43.7 °F 79% 29.88 in 10.0 mi SSW 6.9 mph - N/A   Mostly Cloudy
8:35 PM 48.4 °F - 43.0 °F 82% 29.88 in 10.0 mi SSW 5.8 mph - N/A   Mostly Cloudy
8:55 PM 48.2 °F - 43.0 °F 82% 29.88 in 10.0 mi South 4.6 mph - N/A   Mostly Cloudy
9:15 PM 46.9 °F - 42.3 °F 84% 29.87 in 10.0 mi South 6.9 mph - N/A   Scattered Clouds
9:35 PM 46.8 °F - 42.6 °F 85% 29.87 in 10.0 mi South 6.9 mph - N/A   Mostly Cloudy
9:55 PM 46.4 °F 43.5 °F 42.1 °F 85% 29.87 in 10.0 mi South 5.8 mph - N/A   Scattered Clouds
10:15 PM 45.9 °F 42.3 °F 42.1 °F 87% 29.87 in 10.0 mi South 6.9 mph - N/A   Mostly Cloudy
10:35 PM 47.3 °F - 42.8 °F 84% 29.87 in 10.0 mi South 6.9 mph - N/A   Overcast
10:55 PM 48.2 °F - 42.8 °F 82% 29.85 in 10.0 mi South 9.2 mph - N/A   Overcast
11:15 PM 48.7 °F - 42.8 °F 80% 29.85 in 10.0 mi South 9.2 mph - N/A   Overcast
11:35 PM 49.1 °F - 42.4 °F 78% 29.85 in 10.0 mi South 9.2 mph - N/A   Overcast
11:55 PM 48.9 °F - 42.4 °F 78% 29.84 in 10.0 mi South 10.4 mph - N/A   Overcast